EHI
16 23 27 19 9 5 5 5 4 5 5 5 4 3 1 0 0 0 0 0 0 0 0 0 0 0 0 0 0 0 0 0 0 0 0 0 0 0 0 0 0 0 0
20 25 27 19 11 6 5 4 4 4 4 4 3 3 2 1 0 0 0 0 0 0 0 0 0 0 0 0 0 0 0 0 0 0 0 0 0 0 0 0 0 0 0
22 24 22 17 12 8 6 5 4 3 2 2 3 3 3 2 1 0 0 0 0 0 0 0 0 0 0 0 0 0 0 0 0 0 0 0 0 0 0 0 0 0 0
20 19 17 14 11 8 6 6 4 3 2 2 2 3 3 2 1 0 0 0 0 0 0 0 0 0 0 0 0 0 0 0 0 0 0 0 0 0 0 0 0 0 0
16 15 13 12 10 8 6 5 4 3 2 2 1 2 1 1 0 0 0 0 0 0 0 0 0 0 0 0 0 0 0 0 0 0 0 0 0 0 0 0 0 0 0
12 11 11 11 10 7 4 3 2 2 2 1 0 0 0 0 0 0 0 0 0 0 0 0 0 0 0 0 0 0 0 0 0 0 0 0 0 0 0 0 0 0 0
11 9 10 11 9 6 2 1 1 1 1 0 0 0 0 0 0 0 0 0 0 0 0 0 0 0 0 0 0 0 0 0 0 0 0 0 0 0 0 0 0 0 0
10 9 8 8 7 4 1 0 0 0 0 0 0 0 0 0 0 0 0 0 0 0 0 0 0 0 0 0 0 0 0 0 0 0 0 0 0 0 0 0 0 0 0
9 8 6 4 3 1 0 0 0 0 0 0 0 0 0 0 0 0 0 0 0 0 0 0 0 0 0 0 0 0 0 0 0 0 0 0 0 0 0 0 0 0 0
6 5 4 2 0 0 0 0 0 0 0 0 0 0 0 0 0 0 0 0 0 0 0 0 0 0 0 0 0 0 0 0 0 0 0 0 0 0 0 0 0 0 0
3 2 2 1 0 0 0 0 0 0 0 0 0 0 0 0 0 0 0 0 0 0 0 0 0 0 0 0 0 0 0 0 0 0 0 0 0 0 0 0 0 0 0
3 2 1 0 0 0 0 0 0 0 0 0 0 0 0 0 0 0 0 0 0 0 0 0 0 0 0 0 0 0 0 0 0 0 0 0 0 0 0 0 0 0 0
3 3 2 1 0 0 0 0 0 0 0 0 0 0 0 0 0 0 0 0 0 0 0 0 0 0 0 0 0 0 0 0 0 0 0 0 0 0 0 0 0 0 0
2 3 3 2 1 0 1 1 0 0 0 0 0 0 0 0 0 0 0 0 0 0 0 0 0 0 0 0 0 0 0 0 0 0 0 0 0 0 0 0 0 0 0
0 1 3 2 1 0 1 2 1 0 1 1 1 1 1 1 1 1 1 1 0 0 0 0 0 0 0 0 0 0 0 0 0 0 0 0 0 0 0 0 0 0 0
0 0 1 1 0 0 1 1 1 1 2 2 2 2 1 1 2 2 2 1 0 0 0 0 0 0 0 0 0 0 0 0 0 0 0 0 0 0 0 0 0 0 0
0 0 1 1 1 0 0 0 1 2 3 4 4 3 1 1 2 3 2 1 0 1 1 0 0 0 0 0 0 0 0 0 0 0 0 0 0 0 0 0 0 0 0
0 0 1 2 1 0 0 0 1 2 4 5 5 5 3 1 2 3 3 1 1 2 2 1 0 0 0 0 0 0 0 0 0 0 0 0 0 0 0 0 0 0 0
1 1 1 2 1 0 0 0 1 2 3 4 5 5 3 1 2 4 5 4 3 3 3 1 0 0 0 0 0 0 0 0 0 0 0 0 0 0 0 0 0 0 0
0 0 1 1 1 0 0 1 1 1 2 3 3 3 1 1 3 5 6 6 5 4 3 2 1 0 0 0 0 0 0 0 0 0 0 0 0 0 0 0 0 0 0
0 0 0 0 0 0 1 2 1 1 1 2 3 2 1 2 4 5 5 6 6 4 2 2 1 0 0 0 0 0 0 0 0 0 0 0 0 0 0 0 0 0 0
0 0 0 0 0 0 1 1 1 2 3 4 5 5 4 5 6 5 5 6 5 3 1 1 1 0 0 0 0 0 0 0 0 0 0 0 0 0 0 0 0 0 0
0 0 0 0 0 0 0 1 1 3 4 4 7 9 8 8 7 6 5 6 5 2 0 0 0 0 0 0 0 0 0 0 0 0 0 0 0 0 0 0 0 0 0
0 0 0 0 0 0 0 1 1 3 2 2 5 8 9 9 8 7 6 5 4 1 0 0 0 0 0 0 0 0 0 0 0 0 0 0 0 0 0 0 0 0 0
0 0 0 0 0 0 0 0 1 2 1 1 2 4 6 7 7 7 6 4 2 0 0 0 0 0 0 0 0 0 0 0 0 0 0 0 0 0 0 0 0 0 0
0 0 0 0 0 0 0 0 0 1 1 1 1 2 4 5 6 6 5 2 0 0 0 1 1 1 0 0 0 0 0 0 0 0 0 0 0 0 0 0 0 0 0
Wind_Speed
13 16 19 18 17 15 14 13 13 13 13 14 15 15 15 16 16 16 15 16 15 15 16 15 15 15 15 15 16 15 15 15 15 15 14 14 14 14 13 12 10 13 15
16 18 19 17 17 16 14 13 13 12 13 14 15 15 16 16 16 16 16 16 16 16 16 16 15 15 14 14 14 14 14 14 13 11 8 11 12 13 14 14 14 11 14
17 18 19 17 17 16 15 14 13 13 13 14 15 16 16 16 16 16 16 16 16 15 15 15 15 14 13 13 13 13 13 12 11 6 3 9 12 13 13 13 13 13 13
17 17 17 17 17 16 15 14 13 13 13 14 15 15 16 16 16 16 16 16 15 15 14 14 14 13 12 12 12 12 12 11 7 1 6 9 10 12 12 12 12 12 12
16 16 17 16 17 16 15 14 14 13 13 14 14 15 15 16 16 16 16 15 14 14 14 13 13 12 12 11 11 11 11 9 3 4 8 8 9 10 11 11 11 11 11
16 16 17 16 17 16 15 14 14 13 13 14 14 14 15 15 16 15 15 14 14 13 13 12 12 11 11 10 10 10 9 5 3 7 7 7 8 9 9 9 10 10 10
16 15 17 16 16 16 15 14 13 13 13 14 14 14 15 15 15 15 14 14 13 13 12 11 11 10 10 10 9 9 7 1 4 6 6 6 7 8 8 8 8 8 8
15 15 16 16 15 15 14 13 13 12 12 13 13 14 14 14 14 14 14 13 12 12 12 11 10 10 9 9 8 7 5 0 4 5 5 6 6 5 6 6 6 6 7
14 14 14 15 14 13 12 11 12 11 11 11 12 12 12 12 13 14 13 12 12 11 11 10 9 9 8 8 7 6 4 1 1 3 4 4 4 4 4 4 5 5 5
13 13 13 14 14 14 13 11 10 9 9 10 10 10 10 10 11 11 11 11 11 10 9 9 8 8 7 7 6 5 3 4 2 3 2 4 2 2 2 2 3 3 3
12 12 12 13 13 12 12 12 11 10 9 10 10 10 9 9 10 9 9 8 9 9 8 8 7 7 6 6 5 4 5 2 2 1 2 4 0 0 0 1 1 1 1
14 13 11 12 12 11 9 10 9 9 10 10 9 11 8 8 7 7 9 7 7 7 7 7 6 6 6 5 6 6 3 2 1 1 2 1 2 2 1 1 1 1 1
13 13 11 11 12 11 8 8 6 6 7 8 10 10 7 7 6 6 6 7 7 8 7 7 7 5 4 3 3 3 2 2 1 1 2 1 3 4 3 3 3 3 3
12 13 12 12 11 11 9 7 7 6 5 6 7 9 7 5 6 6 5 6 6 5 5 5 4 5 5 5 5 4 3 3 2 1 1 1 4 5 5 4 4 4 4
12 12 12 12 11 10 9 7 7 7 7 7 6 8 8 6 6 6 5 5 5 5 5 5 5 5 5 5 4 4 4 4 3 3 2 3 4 5 5 5 5 5 4
12 12 11 12 12 10 8 8 7 7 7 7 6 8 9 6 6 5 5 5 5 5 5 5 6 5 4 4 4 4 4 4 4 4 3 3 4 4 5 5 5 5 4
10 11 11 11 11 11 10 10 7 7 7 7 7 8 9 8 7 6 5 5 5 5 6 5 6 5 4 4 5 5 4 4 4 4 3 3 2 3 3 4 4 4 4
8 9 10 9 10 10 10 9 7 7 8 7 7 7 9 9 9 7 6 6 5 5 5 5 5 5 5 5 4 4 3 3 4 4 3 3 3 2 1 1 2 3 3
7 7 7 8 10 9 8 7 7 7 7 6 6 7 8 9 9 7 6 5 6 5 5 5 5 5 5 5 4 3 3 3 3 3 4 3 2 2 2 2 1 2 2
5 4 5 6 7 8 6 5 5 6 6 6 6 7 9 8 9 8 6 7 7 6 6 6 7 5 5 4 3 3 3 3 3 3 3 2 1 1 1 1 1 2 3
4 5 5 6 6 5 5 5 6 6 6 6 6 8 9 9 9 8 6 7 7 7 8 8 7 7 5 4 3 3 4 4 3 2 2 2 1 1 0 0 0 0 1
5 5 5 6 6 7 6 6 5 5 5 5 5 7 9 9 9 8 9 7 7 7 8 8 7 5 4 5 4 3 3 4 4 2 2 1 1 1 1 1 1 1 1
3 4 4 5 6 7 7 5 4 4 3 5 6 6 8 9 9 9 9 8 7 7 7 8 8 8 6 5 5 4 4 4 2 3 3 2 2 2 1 1 0 1 1
2 3 4 5 5 6 7 7 8 7 6 7 6 6 7 8 8 8 8 8 8 7 7 7 7 6 7 5 4 5 5 3 3 3 3 3 3 2 2 1 1 0 1
1 2 2 3 5 6 6 8 9 8 6 4 5 7 6 6 7 8 8 8 8 7 7 7 7 7 6 6 5 4 5 4 5 5 4 3 3 3 2 2 1 1 0
1 1 1 2 4 5 6 7 9 10 9 8 7 7 5 5 5 8 8 8 7 7 8 8 7 8 7 7 6 5 4 4 5 5 6 4 4 3 3 2 2 1 0
Wind_Direction
160 155 151 151 150 148 146 145 144 145 145 145 142 139 137 134 129 127 126 123 121 118 115 110 106 101 97 92 89 86 84 81 78 75 73 71 73 73 67 58 67 71 64
154 153 149 151 151 149 147 145 143 144 145 145 143 141 138 134 131 129 128 125 122 119 115 111 107 103 99 95 93 91 88 85 82 80 85 87 74 71 69 61 57 66 64
152 151 151 152 151 148 146 145 144 145 146 146 145 143 140 136 133 131 129 126 122 119 115 112 108 105 103 100 97 96 93 89 85 82 108 89 83 74 73 70 68 67 65
152 152 154 150 150 148 147 147 146 146 147 146 144 142 140 137 134 132 129 125 122 119 116 113 111 108 106 106 103 99 95 91 84 11 83 80 82 76 74 72 69 68 66
153 153 146 152 150 149 148 149 148 148 148 145 143 141 139 138 136 133 129 125 123 120 119 117 114 112 109 109 108 103 98 94 96 86 82 80 79 75 74 71 69 68 66
154 153 148 154 150 149 149 151 151 152 151 147 145 141 140 139 137 133 129 127 126 125 124 121 116 113 111 110 111 108 104 109 146 84 82 80 80 78 75 73 70 67 65
155 154 152 155 152 151 152 153 153 154 153 151 148 145 142 140 138 135 132 132 131 130 128 126 122 118 115 112 112 111 106 78 85 89 83 80 77 75 75 74 70 67 65
155 155 153 154 153 153 154 155 155 152 152 151 150 147 146 143 142 139 138 138 137 136 133 129 126 124 121 117 115 115 113 212 109 92 85 83 72 73 76 73 72 67 64
158 158 157 160 158 154 154 155 155 152 150 149 149 146 144 143 144 144 143 145 144 140 136 133 131 127 123 121 120 119 112 309 113 92 89 84 76 77 79 77 74 68 64
163 164 162 164 165 163 161 155 152 149 147 145 141 136 134 139 145 146 152 148 147 144 141 139 136 132 126 124 125 127 147 227 120 117 107 91 80 82 84 87 82 75 69
169 169 168 168 169 167 164 155 156 150 145 145 142 136 150 161 157 159 151 142 148 148 148 146 143 137 136 135 132 149 204 204 127 107 98 78 11 344 117 88 72 82 70
176 173 174 172 170 169 164 165 169 166 163 172 164 164 172 166 160 159 135 146 150 151 154 151 147 160 195 169 156 194 207 192 187 159 104 80 280 267 245 240 267 263 251
181 175 178 176 173 171 169 170 169 168 172 177 173 174 172 165 160 166 163 163 169 172 175 162 180 191 197 185 193 201 205 231 233 197 135 150 280 274 260 251 255 263 256
188 183 179 180 178 177 175 175 174 172 175 177 178 180 176 173 176 175 181 179 180 186 185 192 202 192 199 198 206 209 206 226 237 243 134 179 272 273 268 261 260 258 256
189 189 183 181 183 179 176 178 181 180 182 181 181 187 187 185 185 182 187 187 194 194 193 199 206 200 206 208 212 226 230 234 241 243 202 181 248 270 267 266 263 261 259
189 189 185 186 186 183 182 183 185 185 184 185 186 192 195 196 193 192 194 197 200 202 204 208 210 209 213 215 221 231 241 246 251 256 267 206 211 250 265 265 266 265 267
192 188 185 186 188 189 190 189 187 188 188 190 192 195 198 199 198 199 203 203 205 206 208 213 213 218 219 219 226 235 246 257 264 263 263 275 247 212 236 262 269 270 269
196 188 186 186 189 195 196 192 189 190 191 193 195 196 201 203 203 203 206 209 209 208 210 211 212 215 215 221 228 228 238 247 263 275 270 265 271 269 200 210 289 286 281
197 194 187 193 195 198 198 199 194 192 195 195 196 199 202 206 206 207 210 211 205 208 212 210 215 217 217 219 231 238 245 250 260 263 266 271 272 275 274 123 102 353 320
192 190 190 194 200 199 194 196 194 196 199 198 200 205 203 204 205 208 210 211 205 207 212 212 211 213 222 218 222 239 249 254 259 262 265 260 259 257 260 254 201 103 54
184 184 190 191 195 199 197 200 200 200 200 201 204 209 207 204 203 206 208 209 209 213 214 214 212 212 212 204 212 229 231 235 241 240 238 227 191 179 166 236 337 317 82
191 191 200 198 197 202 208 207 211 205 206 207 207 211 209 206 203 203 206 206 208 214 214 211 209 211 202 197 213 225 233 212 195 199 202 205 205 174 140 98 66 3 327
194 192 210 209 210 214 214 206 204 202 205 207 212 213 212 209 205 203 206 207 208 212 214 210 208 209 205 203 220 228 237 238 185 179 189 201 198 199 181 143 66 8 352
209 197 208 213 216 217 211 212 210 211 213 215 213 211 208 207 208 207 208 209 207 208 210 208 206 209 210 204 210 231 253 277 241 216 189 194 200 214 210 194 191 149 339
207 210 215 225 221 219 214 217 217 222 222 217 215 216 211 203 207 206 206 208 207 205 205 202 200 204 211 212 205 205 218 233 244 251 241 205 205 210 212 220 213 203 341
3 291 248 242 239 229 222 228 223 221 220 215 217 220 218 210 208 207 203 204 204 202 202 201 199 200 202 210 210 211 209 213 216 230 242 239 232 200 199 213 215 201 196